GFSNE_925_thetae_000.txt.gz
Theta_e
292 292 291 292 292 291 291 292 293 292 292 291 292 292 293 293 294 296 294 293 295 297 299 302 299 297 297 297 298 299 299 300 303 313 315 320 318 317
292 292 292 290 289 289 289 289 290 292 292 291 291 291 292 292 292 292 292 293 294 295 296 297 297 297 296 297 298 296 296 299 300 302 311 315 319 317
290 289 289 288 288 288 288 289 289 290 291 290 291 291 291 291 291 291 291 292 292 293 293 294 294 294 295 296 298 295 295 295 298 299 302 313 315 319
288 288 288 288 288 288 288 288 289 289 289 289 290 291 292 292 292 293 292 291 291 291 291 291 292 293 293 294 296 298 296 295 295 298 298 302 310 313
287 287 287 286 286 286 286 286 286 287 287 288 288 288 288 289 288 289 290 290 292 291 291 290 290 290 291 293 293 295 297 296 295 297 299 298 299 308
286 285 284 284 284 283 283 284 284 285 285 285 286 286 287 287 287 288 288 288 288 288 289 289 288 289 289 290 292 295 297 296 297 298 298 297 297 298
284 284 283 283 283 284 284 284 284 284 285 285 285 285 285 285 286 286 286 287 287 288 288 288 288 290 290 291 293 295 298 297 296 296 296 296 297 297
283 282 282 282 282 282 283 283 284 284 284 284 284 284 284 284 284 284 284 285 286 286 287 288 289 289 289 291 294 295 296 296 296 296 296 297 297 297
281 281 281 281 282 282 282 282 282 283 283 284 284 284 284 284 284 284 284 284 285 285 286 288 289 289 290 291 291 294 295 295 296 296 295 295 296 296
281 281 281 281 281 281 282 282 282 282 282 283 283 283 284 284 284 284 284 284 285 285 285 287 287 288 288 288 288 290 292 294 294 294 294 295 294 294
280 280 280 281 281 282 282 282 282 282 283 283 283 284 283 283 283 283 283 284 284 284 285 285 285 286 287 287 287 287 291 291 291 293 293 293 293 294
280 280 280 281 282 282 283 283 283 283 283 283 283 283 284 284 284 284 284 285 284 284 285 285 285 286 286 287 287 287 288 289 290 292 292 292 292 292
281 281 281 282 281 282 282 281 282 282 283 284 284 283 284 284 284 284 285 285 285 285 285 285 286 286 286 286 287 287 289 290 291 290 290 290 291 292
281 281 281 280 280 280 280 280 281 281 281 282 283 283 283 284 284 284 284 284 284 284 286 285 285 286 285 285 285 287 288 289 289 289 289 289 290 291
281 281 280 278 278 278 278 279 279 279 280 281 283 283 283 284 284 284 284 284 284 284 285 286 286 286 286 286 286 287 288 288 287 287 287 289 289 290
280 279 278 277 277 277 277 277 277 278 278 280 281 282 283 283 284 284 284 284 285 285 285 286 286 286 285 285 286 286 286 286 286 286 287 287 287 287
279 278 277 276 276 276 276 275 276 276 277 278 279 281 283 283 283 283 284 284 285 285 285 286 286 286 286 286 284 285 286 286 286 286 286 285 285 285
277 276 275 275 274 275 275 274 275 275 275 276 278 280 282 283 282 282 283 284 284 284 285 285 285 285 284 283 285 285 285 284 285 285 284 283 283 283
275 274 274 274 273 273 274 274 273 274 275 275 277 278 280 282 283 283 283 284 284 285 284 283 283 284 284 284 280 282 283 283 283 282 282 282 281 281
273 273 272 272 272 272 272 273 273 274 275 275 276 277 279 280 280 281 282 282 282 281 281 282 282 282 283 283 281 279 280 281 281 281 280 280 279 279
271 271 271 271 271 272 273 273 274 273 274 275 275 276 277 279 279 279 280 280 281 280 279 278 279 281 281 280 278 277 279 280 281 280 279 278 278 278
270 270 271 271 271 272 273 273 273 273 273 274 275 276 276 277 277 278 278 278 277 277 277 277 278 279 279 278 276 275 276 277 278 279 279 279 279 279
269 270 270 271 272 272 273 273 273 273 273 274 275 275 276 276 276 277 277 277 277 277 277 277 277 276 275 275 275 275 275 276 277 278 278 279 279 279

GFSNE_925_thetae_003.txt.gz
Theta_e
292 292 292 293 293 293 293 293 293 295 296 295 293 293 293 293 293 293 296 295 293 295 297 298 301 298 298 297 298 297 298 299 300 303 302 305 312 320
293 293 293 293 293 292 292 292 292 292 293 291 291 291 292 291 291 292 292 293 293 294 295 296 297 296 295 296 296 299 296 297 297 299 300 302 308 313
291 291 291 290 290 290 290 290 290 290 291 290 290 291 291 291 291 291 292 291 292 294 292 291 291 292 295 295 295 297 298 295 296 295 298 300 304 314
288 288 288 288 288 289 289 289 289 289 290 290 290 290 290 290 291 292 292 292 293 293 292 291 291 291 291 292 294 295 297 298 296 295 294 298 300 311
287 287 287 287 287 287 287 287 287 287 287 288 288 288 289 289 289 289 290 290 290 291 291 291 292 291 290 290 291 294 295 295 297 296 294 295 299 299
285 285 285 284 284 285 285 285 285 285 286 286 286 287 287 287 288 288 289 289 289 289 289 289 289 289 291 289 289 290 293 294 296 297 296 295 297 298
285 284 284 283 283 283 284 284 285 285 286 286 286 286 287 287 287 287 288 288 288 288 288 289 289 290 290 291 291 291 291 292 294 298 296 297 297 297
284 283 283 282 282 282 283 283 283 284 285 285 285 286 286 286 286 286 286 287 288 287 287 288 288 289 289 290 291 290 291 293 295 297 296 296 296 296
282 282 282 282 282 282 283 282 282 282 283 283 284 285 285 285 285 285 285 286 286 286 287 287 288 289 290 290 290 291 292 294 295 296 296 296 296 296
281 281 281 282 282 282 282 282 283 283 283 283 283 284 284 284 284 285 285 285 285 286 286 287 287 288 289 290 290 289 289 289 292 294 295 295 295 295
281 281 281 282 282 282 282 283 283 283 283 283 283 283 283 283 283 284 285 285 285 285 285 285 286 286 287 287 287 286 286 287 288 291 291 293 294 294
281 281 281 281 282 282 282 283 283 283 283 285 285 284 284 285 284 284 284 285 285 285 285 285 286 286 287 288 288 288 287 287 287 288 290 290 292 292
281 282 282 282 281 280 281 281 281 281 282 283 284 284 285 285 285 284 285 285 285 285 285 286 286 286 287 287 287 287 287 287 287 288 289 291 291 291
281 282 282 280 279 278 279 279 279 279 281 281 282 283 284 285 285 285 285 285 285 285 285 285 286 286 287 287 288 287 287 287 287 290 289 289 289 290
281 280 279 278 277 277 277 277 278 279 280 281 282 283 284 285 285 285 285 285 284 284 284 285 286 286 286 287 288 288 288 288 287 288 288 287 288 288
280 279 277 277 277 277 277 278 278 278 278 280 281 282 283 284 285 285 285 286 285 285 284 284 285 285 287 287 286 287 288 288 286 286 286 286 287 287
278 277 277 276 277 277 277 277 277 277 278 278 280 282 284 285 285 285 285 286 286 286 286 285 285 285 286 286 287 287 287 288 287 288 285 287 288 286
276 276 275 275 276 276 276 276 276 276 277 278 279 280 282 284 285 284 284 285 286 286 286 286 286 286 286 285 285 287 287 287 288 286 285 287 288 287
275 274 274 274 274 275 275 275 275 276 276 277 277 278 280 283 284 284 285 285 285 286 286 286 286 287 288 288 285 283 285 287 287 286 285 285 287 286
273 273 273 273 273 274 274 274 274 275 275 276 276 277 278 281 282 283 284 284 285 285 284 284 285 285 287 287 286 282 281 283 284 286 284 283 282 281
271 271 271 271 272 272 272 273 274 274 275 275 276 276 276 278 280 281 282 280 282 283 283 282 281 281 281 282 283 282 280 280 281 282 282 283 283 283
270 270 270 270 271 271 272 272 273 274 275 275 275 275 276 277 278 279 280 281 281 281 280 280 279 280 281 282 283 280 280 278 279 280 280 281 283 285
269 269 269 269 270 270 271 271 272 273 273 274 274 275 275 276 277 278 279 279 279 279 279 280 279 279 279 280 280 279 278 279 279 280 278 278 279 280

GFSNE_925_thetae_006.txt.gz
Theta_e
295 295 295 295 294 293 293 293 294 298 297 298 298 298 297 296 296 295 296 296 297 295 295 297 301 299 299 297 297 297 298 297 298 299 301 302 304 308
293 292 292 293 293 293 293 293 293 293 294 294 294 294 294 293 294 293 293 294 293 294 293 295 297 297 296 296 295 296 297 299 296 296 296 297 300 303
292 292 291 291 291 291 291 291 291 292 293 292 292 292 292 292 293 292 292 292 293 293 293 293 293 293 293 293 296 296 295 297 297 296 296 295 295 299
291 290 290 289 289 289 290 290 290 290 291 292 291 291 291 292 292 292 292 292 292 293 292 293 294 292 291 290 291 293 295 296 296 298 296 296 295 295
290 289 289 289 289 289 289 289 289 289 289 289 290 290 290 290 291 291 291 292 292 292 292 292 292 291 292 292 291 290 290 293 295 295 296 296 295 294
288 287 287 287 287 287 287 287 287 287 287 288 288 289 289 289 289 290 290 290 291 291 291 290 290 291 291 291 290 290 290 290 291 293 294 295 296 295
287 287 286 286 285 284 284 285 285 286 287 288 289 289 289 289 290 290 290 290 290 290 291 291 291 291 290 290 289 289 290 288 289 290 293 293 297 297
286 286 286 285 284 284 283 283 283 285 286 287 287 287 288 288 288 288 289 289 290 289 289 290 290 290 291 291 291 291 292 291 291 290 292 294 298 297
285 285 284 284 283 284 284 284 283 283 283 283 284 285 286 286 287 287 287 288 288 288 288 289 289 290 290 291 290 290 290 291 290 290 293 294 296 296
284 284 283 283 284 283 283 283 283 284 284 284 284 284 285 285 285 286 286 287 287 287 287 289 288 288 288 289 289 289 290 289 291 291 293 294 295 295
282 282 283 283 283 283 283 283 284 284 284 284 284 283 283 284 284 285 286 286 288 287 287 287 287 287 287 288 288 288 289 289 289 288 288 289 292 292
282 282 282 282 282 283 283 283 283 283 284 284 284 286 284 284 284 284 285 286 286 287 286 287 287 287 288 288 288 288 289 288 286 286 287 288 290 290
281 282 283 283 282 281 280 281 281 281 281 282 283 283 284 286 286 286 286 286 286 286 286 286 288 287 287 288 289 289 289 289 289 289 287 287 288 289
281 282 283 280 280 279 279 279 279 279 281 282 283 283 284 285 286 287 286 286 286 286 286 286 287 287 288 288 289 288 290 289 289 288 289 290 289 290
281 281 279 279 279 279 279 278 278 281 281 282 283 284 285 286 286 287 287 287 286 287 286 287 287 286 287 288 289 289 290 290 289 288 289 291 291 291
279 281 279 278 278 279 279 280 280 280 280 281 282 283 284 285 286 287 286 287 287 286 286 285 285 286 286 287 287 288 289 289 289 288 288 289 289 289
278 279 278 278 279 279 279 279 279 280 280 281 282 283 284 285 287 287 287 287 287 287 287 286 285 285 286 286 287 289 289 289 289 290 288 289 289 289
278 277 277 277 278 278 278 278 279 279 279 280 281 282 283 285 286 286 285 286 287 288 287 288 287 286 286 286 285 287 287 288 289 289 288 288 289 291
276 276 276 276 277 277 277 277 277 278 278 279 281 281 282 283 285 286 286 286 286 287 287 287 287 288 289 289 286 284 286 287 288 289 288 287 288 289
274 274 274 275 276 276 276 276 277 277 278 278 279 280 280 282 283 284 285 286 287 287 287 286 286 287 288 289 290 283 281 283 286 287 288 287 286 286
273 273 274 274 274 275 275 275 277 277 277 278 278 279 279 281 282 282 283 283 284 286 286 285 283 282 284 284 286 284 281 280 282 284 286 286 286 286
272 272 273 273 273 274 275 275 276 276 277 277 278 278 279 280 280 281 281 282 282 283 283 282 282 283 283 284 287 283 282 281 280 281 282 282 283 288
271 271 272 272 272 273 273 274 275 276 276 276 277 278 279 279 280 280 280 281 281 282 282 282 282 282 282 282 283 283 281 281 282 282 280 279 280 280

GFSNE_925_thetae_009.txt.gz
Theta_e
296 296 296 296 296 296 295 295 295 296 297 298 297 298 299 299 298 298 298 298 296 296 296 296 297 302 302 303 304 303 300 298 297 299 299 300 301 303
295 294 294 294 294 294 294 296 295 295 296 295 294 295 295 295 296 296 296 295 295 295 294 295 294 297 298 297 296 296 296 296 298 298 296 296 296 297
294 294 293 293 292 292 292 292 292 293 295 294 293 293 293 294 294 294 294 294 294 294 293 293 293 294 294 294 295 295 296 296 296 297 298 296 296 296
292 292 292 292 291 291 291 291 291 291 292 293 292 292 292 293 293 293 294 294 294 294 293 293 293 293 292 292 292 292 292 292 295 297 296 296 297 297
291 290 290 290 289 289 290 290 290 290 290 291 291 291 291 291 292 292 292 293 293 293 293 293 293 294 294 294 293 292 291 290 290 291 294 296 295 295
289 289 289 289 289 288 288 288 288 288 288 289 289 290 290 290 290 291 292 292 292 292 292 292 292 292 292 291 291 291 291 291 289 290 290 291 294 294
287 288 288 288 287 286 286 286 286 286 287 288 289 290 291 291 291 291 292 292 292 292 292 292 293 292 291 291 290 290 291 291 290 289 289 289 290 292
286 286 287 287 287 286 285 284 284 284 285 286 287 288 289 289 289 290 290 290 292 290 290 291 291 292 292 292 292 292 291 291 291 289 289 289 290 290
285 285 286 286 286 286 285 285 285 284 284 284 284 285 286 286 287 288 289 289 290 289 289 290 290 291 291 291 291 291 291 290 291 292 292 292 291 291
284 284 284 285 285 285 285 284 284 284 284 285 285 285 285 285 286 286 287 287 288 288 289 290 289 290 289 289 289 289 289 289 290 290 290 290 290 292
282 283 283 283 283 283 283 284 284 284 285 285 285 285 284 284 284 285 286 287 288 288 287 288 288 289 289 289 289 288 288 289 289 289 290 291 289 288
281 282 282 283 283 283 283 284 284 284 283 284 284 285 285 286 285 284 284 286 287 288 287 288 288 288 289 289 289 289 289 288 287 288 289 289 288 287
281 282 283 282 281 281 281 281 282 281 281 281 282 283 283 284 285 287 285 286 286 287 287 287 288 288 288 288 289 289 289 289 290 290 289 287 286 286
281 281 283 281 280 280 280 280 279 279 280 282 283 284 285 285 285 286 287 288 287 287 287 287 287 288 288 289 289 289 289 289 289 289 289 290 289 287
280 280 281 280 279 280 281 279 279 281 283 283 284 285 286 286 286 287 287 288 288 287 287 287 287 287 288 288 288 289 290 290 290 289 289 289 289 289
278 278 280 279 279 280 281 281 281 282 282 283 283 284 285 286 287 287 287 287 288 288 287 286 286 287 287 287 287 288 288 289 290 289 288 288 289 290
277 279 279 278 279 280 280 281 281 281 282 282 283 284 285 286 287 288 287 288 288 288 288 288 286 286 286 286 287 288 288 288 289 289 289 289 289 289
278 278 278 277 278 279 279 279 279 280 280 281 282 283 284 284 286 287 287 287 287 288 289 288 288 287 286 286 285 287 287 288 288 289 289 290 289 290
277 277 276 277 277 278 278 278 278 279 279 280 281 282 282 283 284 286 287 288 288 288 288 289 289 288 289 288 287 286 287 287 288 288 288 290 289 288
275 276 276 276 276 276 277 277 278 279 279 280 280 281 281 283 284 284 285 285 286 287 288 288 288 287 288 288 288 282 283 283 285 287 288 289 288 287
274 275 275 275 275 276 276 277 278 278 278 279 280 280 281 282 282 283 283 284 284 285 286 285 283 283 284 285 287 285 281 281 281 283 284 288 288 287
274 274 274 274 274 275 275 275 277 277 277 277 278 280 281 281 282 282 282 283 283 283 284 284 283 283 284 285 286 285 284 282 281 281 282 282 282 286
273 273 274 274 273 273 274 274 275 276 276 276 277 278 280 280 281 281 281 282 282 282 282 283 283 283 283 283 283 284 282 283 283 283 281 280 280 281